CST,Max TemperatureF,Mean TemperatureF,Min TemperatureF,Max Dew PointF,MeanDew PointF,Min DewpointF,Max Humidity, Mean Humidity, Min Humidity, Max Sea Level PressureIn, Mean Sea Level PressureIn, Min Sea Level PressureIn, Max VisibilityMiles, Mean VisibilityMiles, Min VisibilityMiles, Max Wind SpeedMPH, Mean Wind SpeedMPH, Max Gust SpeedMPH,PrecipitationIn, CloudCover, Events, WindDirDegrees
2013-11-1,46,42,39,40,38,35,100,86,74,29.78,29.55,29.29,10,8,1,17,12,25,0.00,8,Rain,299
2013-11-2,44,38,30,36,33,29,92,82,60,30.17,29.97,29.75,10,10,8,10,8,,0.00,7,,327
2013-11-3,48,38,27,36,30,25,100,81,52,30.28,30.21,30.14,10,7,0,18,5,26,0.00,2,Fog-Snow,143
2013-11-4,48,44,39,45,40,34,100,84,63,30.17,30.05,29.98,10,7,2,20,13,28,0.00,6,Rain,192
2013-11-5,46,38,30,40,36,29,100,91,76,30.27,30.12,29.87,9,4,0,20,5,25,0.42,6,Fog-Rain,47
2013-11-6,39,34,28,36,29,22,93,79,55,30.16,29.96,29.82,10,9,3,21,15,29,0.12,5,Rain-Snow,327
2013-11-7,36,30,25,26,24,22,89,80,59,30.23,30.20,30.11,10,8,4,13,5,,0.00,2,,283
2013-11-8,39,30,21,35,27,21,100,86,67,30.27,30.10,29.73,10,4,0,17,6,25,0.07,5,Fog-Rain,151
2013-11-9,44,40,37,40,33,24,89,74,57,30.07,29.82,29.65,10,10,10,22,13,33,0.00,8,,271
2013-11-10,44,40,36,31,27,24,79,63,47,30.31,30.20,30.06,10,10,10,20,15,29,0.00,6,Rain,284
2013-11-11,37,28,19,32,19,7,92,70,43,30.63,30.27,30.05,10,8,2,22,11,28,0.00,5,Rain-Snow,334
2013-11-12,24,16,12,10,9,8,81,71,55,30.75,30.71,30.65,10,10,10,13,11,,0.00,0,,308
2013-11-13,46,32,19,25,21,12,71,52,44,30.33,30.08,29.94,10,10,10,22,15,30,0.00,0,,224
2013-11-14,41,36,30,33,26,19,79,65,52,29.92,29.87,29.83,10,10,9,13,8,20,0.00,3,Rain,226
2013-11-15,52,40,28,36,31,25,92,75,53,29.91,29.86,29.81,10,10,6,9,5,,0.00,0,,207
2013-11-16,54,44,35,52,42,31,97,90,79,29.80,29.53,29.34,10,6,1,16,11,24,0.18,7,Rain,167
2013-11-17,46,41,34,46,40,27,100,89,75,29.66,29.38,29.23,10,6,0,24,7,37,0.06,4,Fog-Rain,269
2013-11-18,32,28,21,25,20,17,82,71,64,30.29,30.02,29.68,10,10,10,28,20,39,0.00,7,,298
2013-11-19,36,27,18,25,20,15,92,72,52,30.36,30.27,30.16,10,10,9,16,7,22,0.00,1,,150
2013-11-20,37,35,33,32,29,25,96,82,62,30.15,30.08,30.04,10,4,0,16,11,22,0.06,8,Fog-Rain-Snow,150
2013-11-21,35,32,28,34,32,24,100,92,73,30.37,30.21,30.06,10,3,0,15,5,24,0.00,8,Fog-Snow,334
2013-11-22,30,26,21,25,18,11,86,74,47,30.52,30.43,30.32,10,7,2,20,13,28,0.00,5,Snow,318
2013-11-23,19,12,5,8,1,-2,79,64,49,30.75,30.67,30.48,10,10,3,22,15,28,0.00,2,Snow,317
2013-11-24,24,14,3,7,2,-3,84,59,37,30.72,30.46,30.10,10,10,10,20,7,28,0.00,1,,223
2013-11-25,35,30,25,25,19,7,75,64,46,30.07,29.97,29.89,10,10,10,18,15,28,0.00,8,,247
2013-11-26,33,22,10,23,11,1,86,65,50,30.29,30.11,29.94,10,8,1,22,14,30,0.00,6,Snow,313
2013-11-27,24,16,8,16,11,2,88,77,55,30.33,30.21,30.11,10,6,1,16,10,,0.00,5,Snow,26
2013-11-28,25,17,9,16,13,6,88,79,63,30.53,30.27,30.10,10,9,2,15,5,,0.00,5,Snow,325
2013-11-29,27,16,5,18,11,1,88,77,66,30.62,30.50,30.28,10,9,6,13,5,,0.00,1,,167
2013-11-30,37,30,24,26,23,18,82,72,62,30.26,30.11,30.04,10,8,6,10,7,,0.00,4,,230